STARLINK-4739, 53792

Orbit data source: Space-Track

STARLINK-4739, 53792 is a payload satellite owned by SpaceX/Seattle (US) in LEO that was launched on Sun, 11 Sep 2022 UTC via an FALCON 9 launch vehicle from the Air Force Eastern Test Range (AFETR). Payload-class satellites include a variety of spacecraft equipped with specific instruments for various scientific and technological missions. These include communications satellites like Starlink; space stations such as the ISS; scientific satellites like the Hubble; Earth observation satellites from companies like Planet Labs, Umbra, and HawkEye 360; GPS; miniature CubeSats for education and research; and military/defense satellites.

Loading next visibility...
Identifier
53792, 2022-111V
Orbit
LEO
Country
Flag of USUS
Related business
Manufacturer
SpaceX/Seattle
Mission
Operational Commercial Communications
Bus & Motor
STARLINK, Unknown motor
Mass
305 kg wet, ~290 kg dry
Launch date (UTC)
2022-09-11 (4 years ago)
Launch vehicle
FALCON 9
Launch site
Air Force Eastern Test Range (AFETR)
Object type
Payload
Rocket body
Debris
Shape & HBR
Box + 1 Pan, 10.1 m
Radar Cross Section
13.562 m², Large (>1 m²)

Expand to show TLE details & history
Last TLE update: 20 hours ago

TLE from 20 hours ago
0 STARLINK-4739
1 53792U 22111V   26263.27728272 -.00002951  00000-0 -83334-4 0  9993
2 53792  53.1606 107.2008 0000874 100.0912 260.0188 15.31719096223249
Epoch: 2026-09-20T06:39Z
TLE epoch observation values (Epoch: 2026-09-20T06:39:17.227Z)
Latitude
-0°
Longitude
8.20525°
Altitude
471.687 km
Speed
7.631 km/s
True Right ascension
07h 08m 48s
True Declination
0° 00' 00"
Sunlit
Object was in daylight at epoch
Visualization orbit readout
Latitude
Unknown
Longitude
Unknown
Altitude
Unknown
Speed
Unknown
Apparent Right ascension
Unknown
Apparent Declination
Unknown
Sunlit
N/A
Visualization observer readout
Local Sidereal Time
19:11:12
Azimuth
Unknown
Elevation
Unknown
Doppler factor
Unknown
Orbital elements
Apogee altitude
471.538 km
Perigee altitude
470.341 km
Semi-major axis
6,849.077 km
Eccentricity
0.00009
Inclination
53.1606°
RAAN
107.2008°
Arg. of periapsis
100.0912°
True anomaly
260.00894°
Mean anomaly
260.0188°
Eccentric anomaly
260.01387°
Mean motion
3.82909 °/min
Orbital period
94.02 mins
BSTAR
-0.000083334
Loading maneuver chart data...
Computing Atmospheric mass density...
Loading historical data...
Loading historical data...
Loading historical data...
Loading historical data...
Loading historical data...
Loading historical data...
Loading historical data...

Documentation

Showing up to 5 results
|